Portada
METAR-TAF:

METAR-TAF

Aeroports :

Block Island, Rhode Island, Estats Units d'Amèrica

latitud: 41-10N, longitud: 071-34W, altitud: 33 m

Observació

L'informe es va fer fa 23 minuts, a les 16:56 UTC
Vent 14 kt del Oest amb ràfegues de 21 kt
Temperatura 7°C
Humitat 61%
Pressió 1017 hPa
Visibilitat: 16.1 km
Cel clar

METAR: KBID 241656Z AUTO 27014G21KT 10SM CLR 07/00 A3003 RMK AO2 SLP170 T00720000

Hora: 12:19 (17:19 UTC)


TAF: manca

Observacions i pronòstics meteorològics de més de 4000 aeroports (METAR i TAF).

Les estacions disponibles són els punts grocs i vermells al mapa.

Posi el ratolí al punt desitjat per veure el nom de l'estació.

Feu clic per veure les observacions i els pronòstics meteorològics.

Per canviar el mapa: feu clic els botons verds amb una creu de color negre per apropar; al botó verd amb un guió per allunyar la imatge; o en les fletxes verdes per a mapes adjacents.


METAR-TAF: